Aérodrome :
LOGIN :

S'inscrire | Disclaimer

   EN    FR    IT 

 










Légende :    VFR   VFR Marginal   IFR   IFR Intensif   IFR Très Intensif
Visi : 
Plafond : 
>= 8 km
>= 3000ft
5 à 8 km
1000 à 3000 ft
1500m à 5 km
500 à 1000 ft
800 à 1500m
200 à 500 ft
< 800m
< 200 ft
Symboles :   Orages  Brouillard  Fortes neiges  Fortes précipitations  Vent > 20 kt
SIGMETs :   Divers  Orages  Givrage  Turbulence  Onde Orograph.  Cendres Volcan.







- Altitude de l'aérodrome : -11 ft
- Code IATA : AMS


EHAM - Amsterdam Schiphol

DERNIER METAR :
  • 181825Z 27007KT 9999 OVC027 10/08 Q1014 NOSIG

METARs EXPIRÉS :
  • 181755Z 27009KT 230V290 9999 OVC025 10/08 Q1014 NOSIG
  • 181725Z 26011KT 9999 BKN025 10/08 Q1014 NOSIG
  • 181655Z 26010KT 9999 BKN025 11/08 Q1014 NOSIG
  • 181625Z 27009KT 9999 SCT025 10/08 Q1014 NOSIG
  • 181555Z 27005KT 9999 FEW025 11/08 Q1014 NOSIG

TAF TAF EHAM
Valide du 18 à 18h jusqu'au 20 à 00h UTC


181704Z 1818/1924 23007KT 9999 SCT018 BKN025
BECMG 1820/1822 7000 -RA
PROB40
TEMPO 1822/1901 4000 -RADZ BKN008
BECMG 1900/1903 24012KT 9999 NSW FEW025
PROB40 1907/1911 BKN013
Pas de NOTAMs connus pour ce terrain.



MET'MAP, la Météo Aéronautique d'un coup d'oeil ! - Copyright ORBIFLY Décembre 2007 - Disclaimer

ORBIFLY MET'MAP TEAM :

Programmation & Développement : Alexandra Zaïnal
Conception & Développement : Baudouin d'Aumeries
Co-Programmation & Développement : Marc-Olivier Méhu
Soutien technique & logistique : Manuel Goepfert

Contact : metmap@orbifly.com




SOURCES & CREDITS :

   NOAA